TimeCDT,TemperatureF,Dew PointF,Humidity,Sea Level PressureIn,VisibilityMPH,Wind Direction,Wind SpeedMPH,Gust SpeedMPH,PrecipitationIn,Events,Conditions,WindDirDegrees,DateUTC
12:53 AM,77.0,72.0,84,29.87,10.0,SSE,9.2,-,N/A,,Scattered Clouds,150,2012-09-05 05:53:00
1:53 AM,75.9,72.0,87,29.88,10.0,SSE,8.1,-,N/A,,Scattered Clouds,160,2012-09-05 06:53:00
2:53 AM,75.9,72.0,87,29.86,10.0,SE,4.6,-,N/A,,Clear,140,2012-09-05 07:53:00
3:53 AM,75.9,73.6,92,29.86,10.0,SSE,8.1,-,N/A,,Partly Cloudy,160,2012-09-05 08:53:00
4:19 AM,75.2,73.4,94,29.91,10.0,SSE,8.1,-,N/A,,Mostly Cloudy,150,2012-09-05 09:19:00
4:53 AM,74.8,73.4,95,29.86,10.0,SE,4.6,-,N/A,,Mostly Cloudy,140,2012-09-05 09:53:00
5:53 AM,75.0,73.0,94,29.87,10.0,SSE,5.8,-,N/A,,Mostly Cloudy,160,2012-09-05 10:53:00
6:53 AM,75.9,73.9,94,29.87,10.0,South,5.8,-,N/A,,Mostly Cloudy,180,2012-09-05 11:53:00
7:53 AM,75.4,72.5,91,29.87,10.0,South,8.1,-,N/A,,Scattered Clouds,180,2012-09-05 12:53:00
8:53 AM,76.6,72.9,88,29.88,10.0,South,9.2,-,N/A,,Scattered Clouds,190,2012-09-05 13:53:00
9:53 AM,79.0,73.9,84,29.89,10.0,SSW,8.1,-,N/A,,Scattered Clouds,200,2012-09-05 14:53:00
10:53 AM,84.0,72.0,67,29.89,10.0,SW,6.9,-,N/A,,Partly Cloudy,220,2012-09-05 15:53:00
11:53 AM,87.1,71.1,59,29.88,10.0,SSW,8.1,-,N/A,,Partly Cloudy,200,2012-09-05 16:53:00
12:53 PM,90.0,69.1,50,29.86,10.0,SSE,10.4,-,N/A,,Partly Cloudy,150,2012-09-05 17:53:00
1:53 PM,93.9,64.9,38,29.84,10.0,Variable,6.9,-,N/A,,Partly Cloudy,0,2012-09-05 18:53:00
2:53 PM,95.0,66.9,40,29.81,10.0,Variable,3.5,-,N/A,,Scattered Clouds,0,2012-09-05 19:53:00
3:53 PM,97.0,62.1,31,29.79,10.0,SE,6.9,-,N/A,,Scattered Clouds,140,2012-09-05 20:53:00
4:53 PM,97.0,63.0,32,29.78,10.0,SW,4.6,-,N/A,,Scattered Clouds,220,2012-09-05 21:53:00
5:53 PM,97.0,61.0,30,29.77,10.0,SSE,8.1,16.1,N/A,,Scattered Clouds,160,2012-09-05 22:53:00
6:53 PM,96.1,60.1,30,29.76,10.0,SE,9.2,-,N/A,,Scattered Clouds,130,2012-09-05 23:53:00
7:53 PM,91.0,60.1,35,29.76,10.0,SE,6.9,-,N/A,,Partly Cloudy,140,2012-09-06 00:53:00
8:53 PM,88.0,63.0,43,29.78,10.0,ESE,8.1,-,N/A,,Partly Cloudy,120,2012-09-06 01:53:00
9:53 PM,87.1,69.1,55,29.81,10.0,SE,10.4,-,N/A,,Partly Cloudy,140,2012-09-06 02:53:00
10:53 PM,84.9,71.1,63,29.83,10.0,SSE,9.2,18.4,N/A,,Partly Cloudy,150,2012-09-06 03:53:00
11:53 PM,82.9,72.0,69,29.85,10.0,SSE,15.0,-,N/A,,Partly Cloudy,160,2012-09-06 04:53:00